CW9417 Weather Reports


Display with metric or nautical units.
time (UTC)temp
F
wind
direction
speed
MPH
gust
MPH
rain 1hr
in
rain 24hr
in
rain mn
in
humidity
%
barometer
mb
20200329154108 42 23 9.0 20.0 0.00 0.00 0.00 40 1034.3
20200329153607 42 59 10.0 24.0 0.00 0.00 0.00 40 1034.2
20200329153107 42 350 9.0 24.0 0.00 0.00 0.00 38 1034.2
20200329152607 43 309 9.0 22.0 0.00 0.00 0.00 37 1034.2
20200329152109 43 342 10.0 22.0 0.00 0.00 0.00 38 1034.1
20200329151609 43 347 9.0 27.0 0.00 0.00 0.00 36 1034.1
20200329151104 43 328 8.0 27.0 0.00 0.00 0.00 37 1033.9
20200329150606 43 358 8.0 22.0 0.00 0.00 0.00 36 1034.0
20200329150106 43 358 9.0 22.0 0.00 0.00 0.00 35 1033.9
20200329145606 43 347 7.0 20.0 0.00 0.00 0.00 37 1034.0
20200329145106 43 330 8.0 18.0 0.00 0.00 0.00 38 1033.8
20200329144605 43 167 10.0 25.0 0.00 0.00 0.00 38 1033.8
20200329144104 43 10 11.0 25.0 0.00 0.00 0.00 38 1033.8
20200329143605 43 330 11.0 23.0 0.00 0.00 0.00 37 1033.9
20200329143105 43 340 11.0 26.0 0.00 0.00 0.00 36 1033.8
20200329142606 43 23 10.0 26.0 0.00 0.00 0.00 38 1033.7
20200329142107 43 335 9.0 22.0 0.00 0.00 0.00 39 1033.8
20200329141608 43 328 9.0 24.0 0.00 0.00 0.00 40 1033.6
20200329141107 43 331 10.0 24.0 0.00 0.00 0.00 38 1033.5
20200329140605 43 6 10.0 22.0 0.00 0.00 0.00 38 1033.6
20200329140101 43 342 11.0 21.0 0.00 0.00 0.00 36 1033.6
20200329135554 43 336 10.0 21.0 0.00 0.00 0.00 36 1033.6
20200329135056 44 353 11.0 22.0 0.00 0.00 0.00 37 1033.4
20200329134556 43 347 11.0 25.0 0.00 0.00 0.00 36 1033.5
20200329134053 43 68 11.0 26.0 0.00 0.00 0.00 37 1033.5
20200329133553 43 355 11.0 26.0 0.00 0.00 0.00 36 1033.5
20200329133058 44 338 10.0 21.0 0.00 0.00 0.00 36 1033.5
20200329132555 44 39 11.0 26.0 0.00 0.00 0.00 37 1033.4
20200329132054 44 46 10.0 26.0 0.00 0.00 0.00 36 1033.4
20200329131554 44 330 9.0 22.0 0.00 0.00 0.00 39 1033.3
20200329131055 44 336 11.0 25.0 0.00 0.00 0.00 38 1033.4
20200329130557 44 344 11.0 25.0 0.00 0.00 0.00 39 1033.5
20200329130054 44 301 10.0 25.0 0.00 0.00 0.00 36 1033.5
20200329125554 44 359 8.0 24.0 0.00 0.00 0.00 36 1033.4
20200329125055 45 348 7.0 26.0 0.00 0.00 0.00 37 1033.4
20200329124556 44 340 7.0 26.0 0.00 0.00 0.00 37 1033.4
20200329124057 44 333 9.0 22.0 0.00 0.00 0.00 38 1033.5
20200329123550 44 339 11.0 23.0 0.00 0.00 0.00 39 1033.3
20200329123051 44 336 11.0 23.0 0.00 0.00 0.00 39 1033.2
20200329122551 44 343 12.0 24.0 0.00 0.00 0.00 38 1033.2
20200329122051 44 52 13.0 24.0 0.00 0.00 0.00 38 1033.3
20200329121550 44 354 12.0 26.0 0.00 0.00 0.00 39 1033.3
20200329121054 44 2 11.0 26.0 0.00 0.00 0.00 39 1033.3
20200329120545 44 306 10.0 25.0 0.00 0.00 0.00 42 1033.4
20200329120044 44 101 10.0 22.0 0.00 0.00 0.00 43 1033.1
20200329115046 44 307 11.0 26.0 0.00 0.00 0.00 40 1033.2
20200329114544 44 335 11.0 26.0 0.00 0.00 0.00 40 1033.1
20200329114044 44 331 10.0 23.0 0.00 0.00 0.00 45 1033.2
20200329113546 44 353 10.0 24.0 0.00 0.00 0.00 44 1033.2
20200329113041 44 316 9.0 24.0 0.00 0.00 0.00 44 1033.1
20200329112544 44 344 10.0 21.0 0.00 0.00 0.00 42 1033.1
20200329112041 44 349 9.0 22.0 0.00 0.00 0.00 40 1033.0
20200329111540 44 91 9.0 22.0 0.00 0.00 0.00 39 1033.2
20200329111041 44 295 11.0 24.0 0.00 0.00 0.00 43 1033.1
20200329110540 44 294 11.0 27.0 0.00 0.00 0.00 43 1032.8
20200329110044 45 340 10.0 27.0 0.00 0.00 0.00 43 1032.9
20200329105539 44 15 10.0 24.0 0.00 0.00 0.00 43 1032.9
20200329105042 44 333 9.0 24.0 0.00 0.00 0.00 40 1032.8
20200329104536 44 355 10.0 21.0 0.00 0.00 0.00 43 1032.7
20200329104035 44 349 12.0 26.0 0.00 0.00 0.00 43 1032.8
20200329103537 44 351 12.0 26.0 0.00 0.00 0.00 42 1032.8
20200329103036 44 1 10.0 25.0 0.00 0.00 0.00 47 1032.7
20200329102537 44 18 9.0 25.0 0.00 0.00 0.00 46 1032.7
20200329102037 44 357 8.0 20.0 0.00 0.00 0.00 47 1032.6
20200329101539 44 342 10.0 21.0 0.00 0.00 0.00 49 1032.6
20200329101031 44 359 11.0 24.0 0.00 0.00 0.00 48 1032.5
20200329100531 44 338 11.0 24.0 0.00 0.00 0.00 48 1032.5
20200329100034 44 335 11.0 23.0 0.00 0.00 0.00 48 1032.5
20200329095533 44 352 11.0 23.0 0.00 0.00 0.00 51 1032.5
20200329095032 44 335 12.0 24.0 0.00 0.00 0.00 52 1032.4
20200329094535 44 47 13.0 24.0 0.00 0.00 0.00 53 1032.3
20200329094034 44 322 9.0 21.0 0.00 0.00 0.00 54 1032.3
20200329093526 44 352 9.0 21.0 0.00 0.00 0.00 56 1032.4
20200329093025 43 334 10.0 21.0 0.00 0.00 0.00 55 1032.3
20200329092526 44 46 10.0 21.0 0.00 0.00 0.00 57 1032.3
20200329092027 44 343 10.0 21.0 0.00 0.00 0.00 56 1032.3
20200329091024 44 138 10.0 21.0 0.00 0.00 0.00 57 1032.1
20200329090526 44 333 10.0 20.0 0.00 0.00 0.00 57 1032.0
20200329090018 44 293 9.0 18.0 0.00 0.00 0.00 57 1032.0
20200329085518 44 338 10.0 21.0 0.00 0.00 0.00 60 1031.9
20200329085018 44 338 9.0 21.0 0.00 0.00 0.00 58 1031.9
20200329084519 44 355 7.0 19.0 0.00 0.00 0.00 58 1031.9
20200329084019 44 90 9.0 23.0 0.00 0.00 0.00 58 1031.7
20200329083520 44 344 9.0 23.0 0.00 0.00 0.00 59 1031.8
20200329083015 44 20 9.0 21.0 0.00 0.00 0.00 60 1031.6
20200329082513 44 348 9.0 21.0 0.00 0.00 0.00 59 1031.6
20200329082013 44 349 7.0 17.0 0.00 0.00 0.00 61 1031.5
20200329081513 44 335 9.0 21.0 0.00 0.00 0.00 62 1031.5
20200329081015 44 84 10.0 21.0 0.00 0.00 0.00 60 1031.4
20200329080521 44 340 9.0 22.0 0.00 0.00 0.00 61 1031.4
20200329080009 44 96 11.0 22.0 0.00 0.00 0.00 62 1031.3
20200329075507 43 343 10.0 20.0 0.00 0.00 0.00 61 1031.3
20200329075007 43 346 7.0 20.0 0.00 0.00 0.00 62 1031.2
20200329074507 43 29 7.0 18.0 0.00 0.00 0.00 62 1031.1
20200329074006 43 331 8.0 18.0 0.00 0.00 0.00 63 1031.0
20200329073509 43 11 9.0 19.0 0.00 0.00 0.00 63 1031.0
20200329073001 43 15 7.0 19.0 0.00 0.00 0.00 64 1031.0
20200329072502 43 343 7.0 20.0 0.00 0.00 0.00 66 1030.8
20200329072003 43 318 10.0 20.0 0.00 0.00 0.00 67 1030.7
20200329071503 43 338 9.0 18.0 0.00 0.00 0.00 68 1030.5
20200329071001 43 318 8.0 17.0 0.00 0.00 0.00 69 1030.5
20200329070502 43 332 7.0 18.0 0.00 0.00 0.00 70 1030.4
20200329065956 43 339 6.0 18.0 0.00 0.00 0.00 70 1030.3
20200329065454 43 348 7.0 18.0 0.00 0.00 0.00 70 1030.2
20200329064955 43 334 7.0 18.0 0.00 0.00 0.00 70 1030.1
20200329064455 43 12 6.0 16.0 0.00 0.00 0.00 71 1030.0
20200329063957 42 345 6.0 16.0 0.00 0.00 0.00 71 1029.9
20200329063456 42 340 7.0 17.0 0.00 0.00 0.00 72 1029.9
20200329062950 42 313 7.0 19.0 0.00 0.00 0.00 72 1029.8
20200329062448 42 356 6.0 19.0 0.00 0.00 0.00 72 1029.7
20200329061948 42 325 6.0 13.0 0.00 0.00 0.00 73 1029.6
20200329061448 42 25 6.0 15.0 0.00 0.00 0.00 73 1029.4
20200329060959 42 338 7.0 15.0 0.00 0.00 0.00 74 1029.4
20200329060450 42 344 7.0 14.0 0.00 0.00 0.00 75 1029.3
20200329055945 41 333 5.0 12.0 0.00 0.00 0.00 78 1029.3
20200329055445 41 296 3.0 9.0 0.00 0.00 0.00 80 1029.2
20200329054945 40 330 2.0 6.0 0.00 0.00 0.00 80 1029.1
20200329054446 40 328 2.0 6.0 0.00 0.00 0.00 80 1029.1
20200329053946 40 330 3.0 8.0 0.00 0.00 0.00 79 1029.1
20200329053445 41 340 3.0 8.0 0.00 0.00 0.00 78 1029.1
20200329052948 41 346 4.0 8.0 0.00 0.00 0.00 77 1029.0
20200329052441 42 320 4.0 9.0 0.00 0.00 0.00 76 1028.9
20200329051941 42 319 5.0 12.0 0.00 0.00 0.00 74 1028.9
20200329051440 42 330 6.0 14.0 0.00 0.00 0.00 74 1028.8
20200329050940 42 342 5.0 14.0 0.00 0.00 0.00 74 1028.7
20200329050440 42 353 5.0 11.0 0.00 0.00 0.00 74 1028.6
20200329045942 42 330 4.0 9.0 0.00 0.00 0.00 74 1028.6
20200329045435 42 348 5.0 9.0 0.00 0.00 0.00 73 1028.5
20200329044934 41 340 5.0 9.0 0.00 0.00 0.00 73 1028.4
20200329044434 41 338 4.0 9.0 0.00 0.00 0.00 73 1028.4
20200329043934 41 340 3.0 9.0 0.00 0.00 0.00 74 1028.3
20200329043434 41 327 3.0 9.0 0.00 0.00 0.00 75 1028.3
20200329042936 41 318 2.0 8.0 0.00 0.00 0.00 75 1028.2
20200329042429 41 339 2.0 8.0 0.00 0.00 0.00 75 1028.2
20200329041928 41 18 3.0 8.0 0.00 0.00 0.00 74 1028.1
20200329041430 41 334 4.0 8.0 0.00 0.00 0.00 72 1028.1
20200329040930 40 331 4.0 8.0 0.00 0.00 0.00 72 1028.1
20200329040428 40 339 6.0 14.0 0.00 0.00 0.00 74 1027.9
20200329035930 40 354 5.0 14.0 0.00 0.00 0.00 77 1028.0
20200329035430 40 337 3.0 13.0 0.00 0.00 0.00 86 1028.1
20200329034928 40 350 3.0 6.0 0.00 0.00 0.00 85 1028.2
20200329034432 40 326 3.0 7.0 0.00 0.00 0.00 85 1028.1
20200329033932 40 15 2.0 7.0 0.00 0.00 0.00 84 1028.1
20200329033433 40 6 2.0 6.0 0.00 0.00 0.00 84 1028.0
20200329032930 40 324 2.0 6.0 0.00 0.00 0.00 83 1028.0
20200329032426 40 1 2.0 6.0 0.00 0.00 0.00 82 1028.0
20200329031924 40 252 2.0 6.0 0.00 0.00 0.00 82 1027.9
20200329031421 40 342 1.0 6.0 0.00 0.00 0.00 81 1028.0
20200329030920 40 297 1.0 6.0 0.00 0.00 0.00 79 1028.0
20200329030422 40 315 3.0 11.0 0.00 0.00 0.00 77 1027.9
20200329025920 40 290 5.0 12.0 0.00 0.00 0.00 75 1027.8
20200329025424 40 0 4.0 12.0 0.00 0.00 0.00 79 1028.1
20200329024921 41 293 3.0 7.0 0.00 0.00 0.00 79 1028.1
20200329024429 41 219 3.0 6.0 0.00 0.00 0.00 78 1028.0
20200329023921 41 333 3.0 8.0 0.00 0.00 0.00 77 1027.9
20200329023421 41 331 3.0 8.0 0.00 0.00 0.00 77 1027.9
20200329022925 41 319 2.0 7.0 0.00 0.00 0.00 76 1027.9
20200329022417 41 326 3.0 7.0 0.00 0.00 0.00 75 1027.8
20200329021918 41 357 4.0 14.0 0.00 0.00 0.00 75 1027.9
20200329021418 40 328 5.0 14.0 0.00 0.00 0.00 76 1027.9
20200329020918 40 9 6.0 13.0 0.00 0.00 0.00 77 1028.0
20200329020418 40 323 5.0 14.0 0.00 0.00 0.00 77 1028.1
20200329015920 41 11 5.0 14.0 0.00 0.00 0.00 78 1028.0
20200329015417 41 353 5.0 12.0 0.00 0.00 0.00 79 1027.9
20200329015003 41 354 5.0 15.0 0.00 0.00 0.00 79 1027.8
20200329014418 41 319 6.0 15.0 0.00 0.00 0.00 79 1027.8
20200329013918 40 335 7.0 15.0 0.00 0.00 0.00 79 1027.8
20200329013420 40 350 7.0 15.0 0.00 0.00 0.00 79 1027.7
20200329012913 40 342 8.0 19.0 0.00 0.00 0.00 79 1027.9
20200329012412 40 323 9.0 19.0 0.00 0.00 0.00 81 1027.9
20200329011912 40 333 7.0 16.0 0.00 0.00 0.00 84 1028.0
20200329011412 40 10 5.0 13.0 0.00 0.00 0.00 84 1028.0
20200329010912 40 322 5.0 14.0 0.00 0.00 0.00 84 1027.9
20200329010411 40 334 6.0 14.0 0.00 0.00 0.00 83 1028.0
20200329005912 40 23 8.0 19.0 0.00 0.00 0.00 82 1028.0
20200329005414 40 358 10.0 19.0 0.00 0.00 0.00 81 1028.0
20200329004906 40 358 7.0 19.0 0.00 0.00 0.00 80 1028.0
20200329004407 40 330 6.0 13.0 0.00 0.00 0.00 82 1028.0
20200329003907 40 315 6.0 13.0 0.00 0.00 0.00 82 1028.0
20200329003406 40 335 5.0 13.0 0.00 0.00 0.00 82 1028.0
20200329002908 40 342 5.0 11.0 0.00 0.00 0.00 82 1028.0
20200329002408 40 326 5.0 12.0 0.00 0.00 0.00 82 1028.0
20200329001908 40 312 7.0 15.0 0.00 0.00 0.00 81 1028.1
20200329001410 41 300 7.0 15.0 0.00 0.00 0.00 80 1028.2
20200329000908 41 326 6.0 14.0 0.00 0.00 0.00 79 1028.2
20200329000405 41 51 6.0 19.0 0.00 0.00 0.00 77 1028.1
20200328235906 41 311 6.0 19.0 0.00 0.00 0.00 76 1028.1
20200328235405 42 319 6.0 13.0 0.00 0.00 0.00 76 1028.0
20200328234905 42 335 6.0 13.0 0.00 0.00 0.00 76 1028.1
20200328234404 42 316 5.0 12.0 0.00 0.00 0.00 76 1028.1
20200328233904 42 313 5.0 13.0 0.00 0.00 0.00 76 1028.1
20200328233405 42 264 5.0 13.0 0.00 0.00 0.00 75 1028.1
20200328232859 42 336 5.0 11.0 0.00 0.00 0.00 75 1028.1
20200328232357 42 335 5.0 11.0 0.00 0.00 0.00 76 1028.1
20200328231858 42 16 4.0 11.0 0.00 0.00 0.00 76 1028.1
20200328231358 42 295 4.0 11.0 0.00 0.00 0.00 76 1028.1
20200328230900 42 346 5.0 14.0 0.00 0.00 0.00 76 1028.1
20200328230359 42 325 5.0 15.0 0.00 0.00 0.00 76 1028.1
20200328225855 41 338 5.0 15.0 0.00 0.00 0.00 75 1028.1
20200328225356 41 355 4.0 9.0 0.00 0.00 0.00 75 1028.2
20200328224853 41 36 4.0 10.0 0.00 0.00 0.00 77 1028.1
20200328224351 41 286 3.0 10.0 0.00 0.00 0.00 78 1028.1
20200328223851 41 335 3.0 9.0 0.00 0.00 0.00 79 1028.2
20200328223354 40 309 3.0 9.0 0.00 0.00 0.00 79 1028.2
20200328222850 40 26 3.0 8.0 0.00 0.00 0.00 79 1028.2
20200328222352 40 311 3.0 8.0 0.00 0.00 0.00 79 1028.3
20200328221851 40 349 3.0 8.0 0.00 0.00 0.00 79 1028.3
20200328221351 40 304 2.0 7.0 0.00 0.00 0.00 78 1028.3
20200328220851 40 292 3.0 9.0 0.00 0.00 0.00 78 1028.3
20200328220353 40 325 4.0 9.0 0.00 0.00 0.00 78 1028.3
20200328215847 40 328 4.0 10.0 0.00 0.00 0.00 78 1028.3
20200328215342 40 340 4.0 10.0 0.00 0.00 0.00 78 1028.4
20200328214842 40 261 5.0 15.0 0.00 0.00 0.00 78 1028.5
20200328214344 41 256 6.0 15.0 0.00 0.00 0.00 77 1028.5
20200328213844 42 348 5.0 15.0 0.00 0.00 0.00 73 1028.5
20200328213345 42 348 5.0 12.0 0.00 0.00 0.00 67 1028.5
20200328212839 42 83 5.0 12.0 0.00 0.00 0.00 68 1028.2
20200328212339 42 350 4.0 10.0 0.00 0.00 0.00 68 1028.3
20200328211840 42 246 5.0 16.0 0.00 0.00 0.00 67 1028.2
20200328211336 42 342 6.0 16.0 0.00 0.00 0.00 66 1028.2
20200328210837 42 325 5.0 14.0 0.00 0.00 0.00 64 1028.3
20200328210336 42 338 5.0 12.0 0.00 0.00 0.00 64 1028.3
20200328205839 42 300 5.0 12.0 0.00 0.00 0.00 64 1028.2
20200328205332 42 351 6.0 13.0 0.00 0.00 0.00 65 1028.3
20200328204832 42 335 7.0 17.0 0.00 0.00 0.00 66 1028.2
20200328204332 42 356 7.0 17.0 0.00 0.00 0.00 67 1028.2
20200328203833 42 347 5.0 14.0 0.00 0.00 0.00 68 1028.2
20200328203334 43 353 5.0 15.0 0.00 0.00 0.00 69 1028.1
20200328202836 43 335 7.0 15.0 0.00 0.00 0.00 69 1028.0
20200328202335 43 332 6.0 16.0 0.00 0.00 0.00 71 1027.9
20200328201829 43 10 6.0 16.0 0.00 0.00 0.00 72 1027.9
20200328201329 43 339 6.0 15.0 0.00 0.00 0.00 72 1028.0
20200328200829 43 338 6.0 15.0 0.00 0.00 0.00 73 1028.0
20200328200329 43 14 5.0 12.0 0.00 0.00 0.00 74 1028.0
20200328195829 43 347 6.0 15.0 0.00 0.00 0.00 75 1027.9
20200328195329 43 325 5.0 15.0 0.00 0.00 0.00 75 1027.8
20200328194831 43 352 6.0 14.0 0.00 0.00 0.00 75 1027.9
20200328194324 44 356 6.0 14.0 0.00 0.00 0.00 75 1027.8
20200328193825 44 302 6.0 14.0 0.00 0.00 0.00 76 1027.8
20200328193323 44 347 6.0 14.0 0.00 0.00 0.00 77 1027.8
20200328192824 44 358 5.0 14.0 0.00 0.00 0.00 78 1027.7
20200328192324 44 0 5.0 14.0 0.00 0.00 0.00 78 1027.7
20200328191826 44 302 6.0 14.0 0.00 0.00 0.00 78 1027.6
20200328191319 44 351 5.0 14.0 0.00 0.00 0.00 78 1027.6
20200328190818 44 192 5.0 12.0 0.00 0.00 0.00 78 1027.5
20200328190318 44 333 5.0 12.0 0.00 0.00 0.00 77 1027.4
20200328185818 44 340 5.0 12.0 0.00 0.00 0.00 77 1027.4
20200328185320 44 330 6.0 12.0 0.00 0.00 0.00 77 1027.3
20200328184819 44 317 5.0 12.0 0.00 0.00 0.00 77 1027.3
20200328184313 44 13 5.0 12.0 0.00 0.00 0.00 77 1027.3
20200328183811 44 315 5.0 10.0 0.00 0.00 0.00 77 1027.2
20200328183311 44 359 5.0 10.0 0.00 0.00 0.00 76 1027.2
20200328182811 44 200 5.0 10.0 0.00 0.00 0.00 75 1027.1
20200328182311 44 295 6.0 14.0 0.00 0.00 0.00 75 1027.0
20200328181813 45 4 6.0 15.0 0.00 0.00 0.00 74 1026.9
20200328181307 45 338 8.0 15.0 0.00 0.00 0.00 74 1026.9
20200328180806 45 334 8.0 14.0 0.00 0.00 0.00 74 1026.7
20200328180306 45 350 7.0 14.0 0.00 0.00 0.00 74 1026.8
20200328175805 45 344 6.0 13.0 0.00 0.00 0.00 74 1026.7
20200328175306 46 295 6.0 16.0 0.00 0.00 0.00 73 1026.7
20200328174807 46 11 7.0 17.0 0.00 0.00 0.00 73 1026.6
20200328174259 46 82 7.0 17.0 0.00 0.00 0.00 74 1026.6
20200328173759 46 338 7.0 17.0 0.00 0.00 0.00 74 1026.6
20200328173301 46 359 8.0 18.0 0.00 0.00 0.00 73 1026.6
20200328172800 46 340 8.0 18.0 0.00 0.00 0.00 72 1026.6
20200328172302 47 334 8.0 16.0 0.00 0.00 0.00 70 1026.5
20200328171801 47 304 8.0 16.0 0.00 0.00 0.00 70 1026.3
20200328171255 47 337 7.0 16.0 0.00 0.00 0.00 70 1026.3
20200328170756 47 349 6.0 20.0 0.00 0.00 0.00 73 1026.3
20200328170253 47 356 8.0 20.0 0.00 0.00 0.00 72 1026.2
20200328165754 47 324 7.0 16.0 0.00 0.00 0.00 72 1026.1
20200328165253 47 51 7.0 15.0 0.00 0.00 0.00 71 1026.2
20200328164755 48 342 7.0 16.0 0.00 0.00 0.00 71 1026.1
20200328164249 48 292 6.0 16.0 0.00 0.00 0.00 71 1026.1
20200328163747 48 37 6.0 13.0 0.00 0.00 0.00 71 1026.1
20200328163248 48 340 8.0 15.0 0.00 0.00 0.00 71 1026.0
20200328162747 48 322 8.0 18.0 0.00 0.00 0.00 71 1026.0
20200328162248 48 340 7.0 18.0 0.00 0.00 0.00 72 1026.0
20200328161750 48 10 6.0 15.0 0.00 0.00 0.00 71 1026.0
20200328161243 48 349 7.0 15.0 0.00 0.00 0.00 71 1026.0
20200328160742 48 342 7.0 16.0 0.00 0.00 0.00 72 1025.9
20200328160246 48 352 6.0 16.0 0.00 0.00 0.00 72 1026.0
20200328155742 48 340 6.0 14.0 0.00 0.00 0.00 72 1025.9
20200328155241 48 328 6.0 19.0 0.00 0.00 0.00 73 1025.9
20200328154744 48 24 7.0 19.0 0.00 0.00 0.00 73 1026.0
20200328154245 48 324 8.0 17.0 0.00 0.00 0.00 72 1025.9